Location: Unspecified
(33.9239°N, 118.0544°W)
Time: 11:11:10
(UTC-08:00)

Daily predictions for brighter satellites

Satellite Brightness Start Highest point End
(mag) Time Altitude Azimuth Time Altitude Azimuth Time Altitude Azimuth
ATLAS 2A CENTAUR R/B 4.4 17:49:20 10° WSW 17:56:16 63° S 18:27:36 10° E
Okean 3 3.5 18:05:16 10° N 18:09:35 90° ESE 18:13:50 10° S
Cosmos 44 Rocket 4.0 18:05:38 10° N 18:09:51 31° NE 18:13:59 10° ESE
DELTA 2 R/B (1) 4.2 18:04:42 10° W 18:10:10 50° N 18:15:37 10° ENE
ISS -0.2 18:13:40 10° W 18:15:41 15° SW 18:17:40 10° SSW
NOSS 2-2 (D) 4.1 18:14:49 10° SW 18:18:43 56° WNW 18:23:03 10° NNE
Tiangong 2 3.3 18:19:02 10° NW 18:20:59 16° N 18:22:57 10° NE
BREEZE-M DEB (TANK) 4.5 18:12:19 10° NW 18:21:01 35° NNE 18:23:48 13° E
SJ-6B 3.3 18:18:37 10° SE 18:22:26 40° ENE 18:26:12 10° N
Cosmos 2292 Rocket 4.5 18:20:30 10° SSE 18:24:22 33° E 18:29:20 10° NNE
Cosmos 1697 Rocket 3.9 18:21:04 10° NNW 18:26:28 47° WSW 18:31:48 10° S
Cosmos 2360 Rocket 3.9 18:25:20 10° NNE 18:27:46 13° NE 18:28:48 12° ENE
Meteor 1-18 Rocket 4.3 18:22:45 10° N 18:28:11 53° E 18:33:37 10° SSE
Cosmos 1980 Rocket 2.4 18:23:27 10° NNW 18:29:08 80° WSW 18:34:49 10° SSE
Cosmos 407 Rocket 3.6 18:25:42 10° S 18:30:43 53° ESE 18:35:51 10° NNE
Cosmos 1975 Rocket 3.0 18:26:31 10° N 18:30:51 86° W 18:35:09 10° S
Cosmos 1992 Rocket 3.9 18:28:18 10° N 18:33:32 67° ENE 18:38:43 10° SSE
METEOR-M 4.1 18:30:43 10° SSE 18:36:03 82° ENE 18:41:25 10° N
Gbstr 26 Del rocket 4.5 18:34:03 10° SSE 18:36:12 14° SE 18:36:35 14° ESE
ERBS 2.6 18:33:09 10° NNW 18:36:33 49° NE 18:38:55 17° ESE
CZ-3C R/B 3.4 18:37:05 10° SW 18:39:39 12° SSW 18:41:21 10° S
FengYun 1-2 T 4.5 18:35:10 10° SE 18:40:20 45° ENE 18:45:33 10° N
Resurs 01 Rocket 2.2 18:38:08 10° SE 18:42:07 34° ENE 18:46:07 10° N
Cosmos 44 3.5 18:38:36 10° NNW 18:42:43 38° ENE 18:45:18 19° ESE
NOAA 12 4.2 18:38:08 10° S 18:43:26 82° WSW 18:48:47 10° NNW
Cosmos 1536 Rocket 3.9 18:45:22 10° N 18:49:37 42° E 18:53:51 10° SSE
ASTRO E2 3.0 18:47:05 10° W 18:51:03 57° S 18:53:01 27° ESE
Nadezhda 1 Rocket 4.0 18:45:12 10° N 18:51:18 84° W 18:57:22 10° S
FREGAT/IRIS 3.0 18:49:05 10° S 18:52:08 67° W 18:55:12 10° NNW
Cosmos 1190 Rocket 4.1 18:48:12 10° SSW 18:53:23 77° WNW 18:58:35 10° NNE
Okean 1 3.3 18:51:11 10° N 18:55:13 59° E 18:59:12 10° SSE
Cosmos 2181 Rocket 4.3 18:50:59 10° N 18:56:54 44° E 19:02:52 10° SSE
SL-16 R/B 2.2 18:52:32 10° NNW 18:58:09 60° ENE 19:03:43 10° SSE
Cosmos 1633 2.7 18:57:30 10° S 19:01:04 50° E 19:02:59 24° NNE
Cosmos 1140 Rocket 3.7 18:59:19 10° S 19:04:08 42° ESE 19:06:34 25° NE
Helios 1B rocket 2.8 19:04:10 39° E 19:04:17 39° E 19:08:10 10° S
OAO 3 Copernicus 4.3 18:59:33 10° W 19:04:39 80° N 19:06:42 36° ENE
DNEPR-1 R/B 3.8 19:00:45 10° NNW 19:04:46 41° ENE 19:05:11 40° ENE
Spot 2 Rocket 3.4 19:00:33 10° SSE 19:05:30 63° ENE 19:10:31 10° N
CZ-2D R/B 4.3 19:07:46 29° NNE 19:07:46 29° NNE 19:10:02 10° N
Cosmos 1340 3.7 19:06:03 10° N 19:08:18 30° NNE 19:08:18 30° NNE
HJ-1C 3.6 19:07:10 10° S 19:10:32 71° W 19:13:53 10° NNW
Resurs 1-3 3.5 19:07:34 10° SSE 19:11:54 64° ENE 19:16:15 10° N
Cosmos 2184 Rocket 4.4 19:09:00 10° SSE 19:14:44 37° E 19:20:26 10° NNE
Cosmos 2074 Rocket 4.3 19:11:37 10° SSE 19:17:21 40° E 19:23:08 10° NNE
CZ-3C R/B 3.2 19:14:11 10° SW 19:17:53 14° SSW 19:19:35 12° S
Cosmos 2322 Rocket 2.1 19:12:36 10° NNW 19:18:14 87° WSW 19:23:50 10° SSE
ALOS 2.6 19:14:32 10° S 19:19:10 66° W 19:23:49 10° NNW
Cosmos 1709 Rocket 4.1 19:13:10 10° S 19:19:26 77° W 19:25:39 10° N
PSLV R/B 4.0 19:18:04 10° WNW 19:20:55 46° SW 19:20:55 46° SW
Cosmos 1300 Rocket 3.4 19:16:47 10° S 19:21:10 85° E 19:25:35 10° N
H-2A R/B 2.5 19:20:55 60° SSE 19:21:33 90° WSW 19:25:16 10° NNW
Cosmos 1954 Rocket 3.9 19:17:27 10° SSW 19:22:37 89° WNW 19:27:50 10° NNE
Cosmos 614 Rocket 4.3 19:18:20 10° S 19:22:25 44° SE 19:22:25 44° SE
SL-08 ROCKET BODY 4.5 19:18:54 10° SSE 19:24:48 53° E 19:30:47 10° NNE
Meteor 1-11 Rocket 3.6 19:21:52 10° S 19:27:34 84° E 19:33:26 10° N
CZ-3 Stage 3 4.3 19:24:50 10° WSW 19:29:10 62° SSE 19:35:19 33° E
SL-8 R/B 3.8 19:26:56 10° NW 19:31:45 71° SW 19:32:36 57° SSE
Meteor 2-4 Rocket 4.3 19:28:07 10° N 19:32:01 39° NE 19:32:01 39° NE
CENTAUR R/B 4.3 19:38:04 10° NW 19:45:28 40° WSW 19:53:04 10° S
Okean 1 Rocket 3.4 19:41:51 10° SSW 19:46:17 66° W 19:46:24 65° WNW
DELTA 2 R/B (1) 4.1 19:51:43 10° WNW 19:56:38 51° NNW 19:56:38 51° NNW
Cosmos 2360 Rocket 2.9 20:06:45 10° NNW 20:10:38 46° NNW 20:10:38 46° NNW
Resurs 01 Rocket 4.3 20:15:48 10° SW 20:18:38 17° W 20:21:30 10° NW
ATLAS 2A CENTAUR R/B 4.1 20:35:36 10° WSW 20:37:42 27° SW 20:37:42 27° SW
